This demonstration page uses our WeatherBlox Daily Observations layout. Learn more.

Left ArrowRight Arrow

44.31136, -96.79839

Hourly Observations for June 19, 2019

Temp ( °F °C ) Dew Point ( °F °C ) Humidity (%) Winds ( mph kmh ) Pressure ( in mb ) Visibility ( mi km ) Precip ( " mm )
12:56 am 00:56 Clear 59 15 53 11.7 81 81 S 3 6 29.95 1014 10 16 0.00 0.00
1:56 am 01:56 Clear 57 13.9 54 12.2 90 90 Calm 29.92 1013 10 16 0.00 0.00
2:56 am 02:56 Clear 55 12.8 54 12.2 96 96 Calm 29.92 1013 10 16 0.00 0.00
3:56 am 03:56 Clear 54 12.2 53 11.7 97 97 Calm 29.90 1013 10 16 0.00 0.00
4:56 am 04:56 Clear 54 12.2 52 11.1 93 93 Calm 29.88 1012 10 16 0.00 0.00
5:56 am 05:56 Sunny 53 11.7 51 10.6 93 93 S 5 7 29.90 1013 10 16 0.00 0.00
6:56 am 06:56 Sunny 57 13.9 54 12.2 90 90 Calm 29.90 1012 10 16 0.00 0.00
7:56 am 07:56 Sunny 61 16.1 55 12.8 81 81 Calm 29.88 1012 10 16 0.00 0.00
8:56 am 08:56 Sunny 63 17.2 54 12.2 73 73 SE 5 7 29.88 1012 10 16 0.00 0.00
9:56 am 09:56 Sunny 65 18.3 55 12.8 70 70 SSE 8 13 29.87 1012 10 16 0.00 0.00
10:56 am 10:56 Mostly Sunny 66 18.9 53 11.7 63 63 SSE 9 15 29.85 1011 10 16 0.00 0.00
11:56 am 11:56 Sunny 68 20 53 11.7 59 59 S 7 11 29.85 1011 10 16 0.00 0.00
12:56 pm 12:56 Mostly Sunny 71 21.7 53 11.7 53 53 S 3 6 29.84 1011 10 16 0.00 0.00
1:56 pm 13:56 Mostly Cloudy 72 22.2 53 11.7 52 52 SE 7 11 29.82 1010 10 16 0.00 0.00
2:56 pm 14:56 Sunny 71 21.7 52 11.1 51 51 SE 6 9 29.81 1009 10 16 0.00 0.00
3:56 pm 15:56 Sunny 73 22.8 53 11.7 50 50 SE 6 9 29.79 1009 10 16 0.00 0.00
4:56 pm 16:56 Partly Cloudy 74 23.3 51 10.6 45 45 VRB 5 7 29.77 1008 10 16 0.00 0.00
5:56 pm 17:56 Cloudy 72 22.2 51 10.6 48 48 VRB 5 7 29.76 1008 10 16 0.00 0.00
6:56 pm 18:56 Cloudy 71 21.7 51 10.6 49 49 SE 7 11 29.75 1007 10 16 0.00 0.00
7:56 pm 19:56 Cloudy 70 21.1 53 11.7 55 55 ESE 6 9 29.74 1007 10 16 0.00 0.00
8:56 pm 20:56 Cloudy 70 21.1 52 11.1 53 53 SE 5 7 29.74 1007 10 16 0.00 0.00
9:56 pm 21:56 Cloudy 68 20 53 11.7 59 59 E 6 9 29.74 1007 10 16 0.00 0.00
10:56 pm 22:56 Mostly Cloudy 67 19.4 53 11.7 61 61 SE 8 13 29.75 1008 10 16 0.00 0.00
11:56 pm 23:56 Mostly Clear 65 18.3 54 12.2 68 68 ESE 9 15 29.73 1007 10 16 0.00 0.00

Powered by AerisWeather